31P/Schwassmann-Wachmann 2 (2010)

Japanese version
Home page
Updated on January 7, 2012

---------------------------------------------------------------------

* Profile

* Pictures

* Orbital Elements

Epoch 2010 Oct. 11.0 TT = JDT 2455480.5
T 2010 Sept. 29.47906 TT                                MPC
q   3.4243226            (2000.0)            P               Q
n   0.11280061     Peri.   17.93347     -0.66982520     -0.73898924
a   4.2422384      Node   114.18835     +0.67117018     -0.64423875
e   0.1928029      Incl.    4.54675     +0.31759218     -0.19710742
P   8.74
From 503 observations 2000 Nov. 24-2011 Feb. 13, mean residual 0".8.

* Finding Charts

* Magnitudes Graph

        m1 = 7.7 + 5 log d + 15.0 log r

---------------------------------------------------------------------

The orbital elements are published on M.P.E.C. 2011-D06.
The charts are made with StellaNavigator Ver.2.0 for Windows (AstroArts / ASCII).
The magnitudes graphs are made with Comet for Windows.

---------------------------------------------------------------------

Copyright(C) Seiichi Yoshida (comet@aerith.net). All rights reserved.